Atqasuk Edward Burnell Sr Mem, AK

12:47 PM AKDT on July 15, 2019 (GMT -0800)
Atqasuk Edward Burnell Sr Mem

Weather History for PATQ - May, 2019

Change the Weather History Date:

Saturday, May 11, 2019

  Actual Average (WUND) Record (WUND)
Temperature  
Mean Temperature 22 °F -  
Max Temperature 24 °F - - (-1)
Min Temperature 19 °F - - (-1)
Degree Days  
Heating Degree Days 44    
Moisture  
Dew Point 20 °F    
Average Humidity 90    
Maximum Humidity 96    
Minimum Humidity 80    
Precipitation  
Precipitation 0.00 in - - ()
Sea Level Pressure  
Sea Level Pressure 29.78 in    
Wind  
Wind Speed 14 mph (ENE)    
Max Wind Speed 17 mph    
Max Gust Speed -    
Visibility 5 miles    
Events Fog , Snow    
Averages and records for this station are not official NWS values.
T = Trace of Precipitation, MM = Missing Value Source: NWS Daily Summary

Daily Weather History Graph

Daily Weather History Graph

Search for Another Location

Airport or City:

Astronomy

May. 11, 2019 Rise Set
Actual Time 3:35 AM AKDT 1:27 AM AKDT
Civil Twilight Sun does not set Sun does not set
Nautical Twilight Sun does not set Sun does not set
Astronomical Twilight Sun does not set Sun does not set
Moon 10:13 AM AKDT (5/11) 6:59 AM AKDT (5/11)
Length of Visible Light 24h 00m
Length of Day
21h 52m
Waxing Crescent, 48% of the Moon is Illuminated
May 11
Waxing Crescent
May 11
First Quarter
May 18
Full
May 26
Last Quarter
Jun 3
New

Hourly Weather History & Observations

Time (AKDT) Temp. Windchill Dew Point Humidity Pressure Visibility Wind Dir Wind Speed Gust Speed Precip Events Conditions
12:14 AM 23.0 °F 9.2 °F 21.2 °F 93% 29.80 in 10.0 mi NE 17.3 mph - 0.00 in   Mostly Cloudy
12:56 AM 23.0 °F 9.2 °F 21.9 °F 96% 29.82 in 10.0 mi NE 17.3 mph - 0.00 in   Scattered Clouds
1:56 AM 23.0 °F 9.2 °F 21.0 °F 92% 29.81 in 10.0 mi NE 17.3 mph - N/A   Clear
2:08 AM 23.0 °F 9.2 °F 21.2 °F 93% 29.79 in 9.0 mi NE 17.3 mph - 0.00 in Snow Light Snow
2:42 AM 23.0 °F 9.6 °F 21.2 °F 93% 29.79 in 2.0 mi NE 16.1 mph - 0.00 in Snow Light Snow
2:49 AM 23.0 °F 9.6 °F 21.2 °F 93% 29.78 in 1.8 mi NE 16.1 mph - 0.00 in Snow Light Snow
2:56 AM 23.0 °F 9.6 °F 21.0 °F 92% 29.81 in 1.8 mi NE 16.1 mph - 0.00 in Snow Light Snow
3:05 AM 23.0 °F 10.1 °F 21.2 °F 93% 29.78 in 2.5 mi NE 15.0 mph - 0.00 in Snow Light Snow
3:15 AM 23.0 °F 10.1 °F 21.2 °F 93% 29.78 in 4.0 mi NE 15.0 mph - 0.00 in Snow Light Snow
3:56 AM 23.0 °F 10.1 °F 21.0 °F 92% 29.80 in 9.0 mi NE 15.0 mph - 0.00 in Snow Light Snow
4:48 AM 23.0 °F 10.1 °F 21.2 °F 93% 29.78 in 5.0 mi NE 15.0 mph - 0.00 in Snow Light Snow
4:56 AM 23.0 °F 10.1 °F 21.0 °F 92% 29.80 in 7.0 mi NE 15.0 mph - 0.00 in Snow Light Snow
5:27 AM 23.0 °F 10.6 °F 21.2 °F 93% 29.77 in 6.0 mi NE 13.8 mph - 0.00 in Snow Light Snow
5:48 AM 23.0 °F 10.6 °F 21.2 °F 93% 29.77 in 3.0 mi NE 13.8 mph - 0.00 in Snow Light Snow
5:56 AM 21.9 °F 9.8 °F 19.9 °F 92% 29.80 in 4.0 mi East 12.7 mph - 0.00 in Snow Light Snow
6:16 AM 21.2 °F 10.1 °F 19.4 °F 93% 29.77 in 9.0 mi East 10.4 mph - 0.00 in Snow Light Snow
6:40 AM 21.2 °F 8.3 °F 19.4 °F 93% 29.77 in 10.0 mi East 13.8 mph - 0.00 in   Mostly Cloudy
6:52 AM 21.2 °F 8.9 °F 19.4 °F 93% 29.77 in 7.0 mi East 12.7 mph - 0.00 in Snow Light Snow
6:56 AM 21.0 °F 8.6 °F 19.0 °F 92% 29.79 in 6.0 mi East 12.7 mph - 0.00 in Snow Light Snow
7:37 AM 19.4 °F 5.5 °F 17.6 °F 93% 29.77 in 1.8 mi ENE 15.0 mph - 0.00 in Snow Light Snow
7:40 AM 19.4 °F 5.5 °F 17.6 °F 93% 29.77 in 0.8 mi ENE 15.0 mph - 0.00 in Snow Light Snow
7:50 AM 19.4 °F 6.0 °F 17.6 °F 93% 29.77 in 1.5 mi ENE 13.8 mph - 0.00 in Snow Light Snow
7:56 AM 19.0 °F 5.0 °F 18.0 °F 96% 29.79 in 2.5 mi East 15.0 mph - 0.00 in Snow Light Snow
8:07 AM 19.4 °F 6.0 °F 17.6 °F 93% 29.77 in 4.0 mi ENE 13.8 mph - 0.00 in Snow Light Snow
8:36 AM 19.4 °F 6.6 °F 17.6 °F 93% 29.77 in 6.0 mi ENE 12.7 mph - 0.00 in Snow Light Snow
8:56 AM 19.9 °F 6.7 °F 17.1 °F 89% 29.79 in 5.0 mi ENE 13.8 mph - 0.00 in Snow Light Snow
9:56 AM 19.9 °F 6.7 °F 18.0 °F 92% 29.79 in 6.0 mi NE 13.8 mph - 0.00 in Snow Light Snow
10:18 AM 19.4 °F 6.0 °F 17.6 °F 93% 29.77 in 10.0 mi NE 13.8 mph - N/A   Partly Cloudy
10:56 AM 21.9 °F 9.2 °F 18.0 °F 85% 29.80 in 9.0 mi NE 13.8 mph - 0.00 in Snow Light Snow
11:52 AM 21.2 °F 7.8 °F 19.4 °F 93% 29.77 in 2.5 mi NE 15.0 mph - 0.00 in   Mostly Cloudy
11:56 AM 21.9 °F 9.2 °F 19.0 °F 89% 29.79 in 2.0 mi ENE 13.8 mph - 0.00 in   Mostly Cloudy
12:11 PM 21.2 °F 8.3 °F 19.4 °F 93% 29.77 in 1.5 mi ENE 13.8 mph - N/A   Overcast
12:34 PM 23.0 °F 10.1 °F 19.4 °F 86% 29.76 in 2.0 mi NE 15.0 mph - 0.00 in Snow Light Snow
12:49 PM 23.0 °F 11.1 °F 19.4 °F 86% 29.77 in 1.2 mi ENE 12.7 mph - 0.00 in Snow Light Snow
12:56 PM 23.0 °F 10.6 °F 19.9 °F 88% 29.79 in 2.0 mi ENE 13.8 mph - 0.00 in   Overcast
1:09 PM 23.0 °F 10.6 °F 19.4 °F 86% 29.77 in 4.0 mi ENE 13.8 mph - N/A   Overcast
1:56 PM 24.1 °F 12.0 °F 19.9 °F 84% 29.79 in 10.0 mi ENE 13.8 mph - N/A   Mostly Cloudy
2:09 PM 24.8 °F 13.4 °F 19.4 °F 80% 29.77 in 10.0 mi ENE 12.7 mph - N/A   Scattered Clouds
2:48 PM 23.0 °F 10.6 °F 19.4 °F 86% 29.77 in 2.5 mi NE 13.8 mph - N/A   Mostly Cloudy
2:56 PM 23.0 °F 10.6 °F 19.0 °F 85% 29.80 in 4.0 mi NE 13.8 mph - N/A   Mostly Cloudy
3:56 PM 24.1 °F 12.5 °F 19.9 °F 84% 29.80 in 2.5 mi NE 12.7 mph - N/A   Mostly Cloudy
4:14 PM 23.0 °F 10.1 °F 19.4 °F 86% 29.77 in 5.0 mi NE 15.0 mph - N/A   Overcast
4:51 PM 24.8 °F 14.0 °F 19.4 °F 80% 29.77 in 2.5 mi NE 11.5 mph - N/A   Overcast
4:52 PM 24.1 °F 13.1 °F 19.9 °F 84% 29.79 in 2.5 mi NE 11.5 mph - 0.00 in Snow Light Snow
4:59 PM 24.8 °F 13.4 °F 21.2 °F 86% 29.77 in 1.5 mi NE 12.7 mph - 0.00 in Snow Light Snow
5:15 PM 24.8 °F 14.6 °F 21.2 °F 86% 29.77 in 3.0 mi ENE 10.4 mph - 0.00 in Snow Light Snow
5:29 PM 24.8 °F 14.0 °F 21.2 °F 86% 29.77 in 2.5 mi NE 11.5 mph - 0.00 in Snow Light Snow
5:36 PM 24.8 °F 14.0 °F 21.2 °F 86% 29.77 in 1.2 mi NE 11.5 mph - 0.00 in Snow Light Snow
6:04 PM 24.8 °F 13.4 °F 21.2 °F 86% 29.77 in 0.8 mi NE 12.7 mph - 0.00 in Snow Light Snow
6:11 PM 24.8 °F 13.4 °F 21.2 °F 86% 29.78 in 0.5 mi NE 12.7 mph - 0.00 in Fog , Snow Light Snow
6:15 PM 23.0 °F 11.1 °F 21.2 °F 93% 29.78 in 1.0 mi NE 12.7 mph - 0.00 in Snow Light Snow
6:54 PM 23.0 °F 12.4 °F 21.2 °F 93% 29.78 in 1.2 mi NNE 10.4 mph - 0.00 in   Overcast
6:56 PM 23.0 °F 12.4 °F 21.0 °F 92% 29.80 in 1.2 mi NE 10.4 mph - 0.00 in   Overcast
7:20 PM 24.8 °F 16.1 °F 21.2 °F 86% 29.78 in 3.0 mi NE 8.1 mph - N/A   Overcast
7:34 PM 24.8 °F 14.6 °F 21.2 °F 86% 29.77 in 4.0 mi ENE 10.4 mph - N/A   Overcast
7:51 PM 24.8 °F 16.1 °F 21.2 °F 86% 29.77 in 5.0 mi East 8.1 mph - N/A   Overcast
7:56 PM 24.1 °F 15.2 °F 21.9 °F 91% 29.80 in 6.0 mi East 8.1 mph - N/A   Overcast
8:16 PM 24.8 °F 15.3 °F 21.2 °F 86% 29.78 in 10.0 mi East 9.2 mph - N/A   Scattered Clouds
8:56 PM 24.1 °F 16.0 °F 21.0 °F 88% 29.80 in 10.0 mi East 6.9 mph - N/A   Partly Cloudy
9:24 PM 24.8 °F 15.3 °F 21.2 °F 86% 29.78 in 10.0 mi East 9.2 mph - N/A   Mostly Cloudy
9:53 PM 23.0 °F 14.7 °F 21.2 °F 93% 29.78 in 10.0 mi ENE 6.9 mph - N/A   Scattered Clouds
9:56 PM 23.0 °F 14.7 °F 21.0 °F 92% 29.80 in 10.0 mi ENE 6.9 mph - N/A   Scattered Clouds
10:06 PM 24.8 °F 16.1 °F 21.2 °F 86% 29.78 in 9.0 mi East 8.1 mph - N/A   Scattered Clouds
10:21 PM 24.8 °F 15.3 °F 21.2 °F 86% 29.78 in 6.0 mi East 9.2 mph - N/A   Mostly Cloudy
10:40 PM 23.0 °F 14.7 °F 21.2 °F 93% 29.78 in 10.0 mi East 6.9 mph - N/A   Scattered Clouds
10:56 PM 21.9 °F 14.5 °F 19.9 °F 92% 29.81 in 10.0 mi East 5.8 mph - N/A   Clear
11:56 PM 21.9 °F 15.7 °F 19.9 °F 92% 29.81 in 10.0 mi ENE 4.6 mph - N/A   Partly Cloudy